Change the Weather History Date:

Tuesday, February 12, 2013

  Actual Average Record
Temperature  
Mean Temperature 62 °F -  
Max Temperature 66 °F 65 °F 81 °F (1957)
Min Temperature 59 °F 47 °F 24 °F (1988)
Degree Days  
Heating Degree Days 2    
Growing Degree Days 12 (Base 50)    
Moisture  
Dew Point 58 °F    
Average Humidity 89    
Maximum Humidity 100    
Minimum Humidity 73    
Precipitation  
Precipitation 0.00 in - - ()
Sea Level Pressure  
Sea Level Pressure 29.86 in    
Wind  
Wind Speed 9 mph (North)    
Max Wind Speed 16 mph    
Max Gust Speed 18 mph    
Visibility 6 miles    
Events Rain    
Averages and records for this station are not official NWS values.
T = Trace of Precipitation, MM = Missing Value Source: NWS Daily Summary

Daily Weather History Graph

Daily Weather History Graph

Search for Another Location

Airport or City:

Trip Planner

Search our weather history database for the weather conditions in past years. The results will help you decide how hot, cold, wet, or windy it might be!

Date:

Astronomy

Feb. 12, 2013 Rise Set
Actual Time 7:05 AM CST 6:13 PM CST
Civil Twilight 6:41 AM CST 6:37 PM CST
Nautical Twilight 6:13 AM CST 7:05 PM CST
Astronomical Twilight 5:45 AM CST 7:32 PM CST
Moon 8:20 AM CST (2/12) 8:55 PM CST (2/12)
Length of Visible Light 11h 56m
Length of Day
11h 07m
Waxing Crescent, 7% of the Moon is Illuminated
Feb 12
Waxing Crescent
Feb 17
First Quarter
Feb 25
Full
Mar 4
Last Quarter
Mar 11
New

Hourly Weather History & Observations

Time (CST) Temp. Dew Point Humidity Pressure Visibility Wind Dir Wind Speed Gust Speed Precip Events Conditions
12:53 AM 59.0 °F 55.9 °F 90% 29.91 in 9.0 mi NE 11.5 mph - N/A   Overcast
1:53 AM 59.0 °F 55.9 °F 90% 29.90 in 8.0 mi NE 9.2 mph - N/A   Overcast
2:53 AM 59.0 °F 57.0 °F 93% 29.88 in 5.0 mi NE 10.4 mph - N/A   Overcast
3:15 AM 59.0 °F 57.2 °F 94% 29.88 in 5.0 mi NE 10.4 mph - N/A   Overcast
3:35 AM 59.0 °F 57.2 °F 94% 29.87 in 2.0 mi ENE 10.4 mph - N/A   Overcast
3:50 AM 59.0 °F 57.2 °F 94% 29.87 in 3.0 mi NE 9.2 mph - 0.00 in   Overcast
3:53 AM 59.0 °F 57.0 °F 93% 29.87 in 3.0 mi NE 8.1 mph - 0.00 in   Overcast
4:02 AM 59.0 °F 57.2 °F 94% 29.86 in 2.0 mi ENE 10.4 mph - N/A   Overcast
4:53 AM 59.0 °F 57.9 °F 96% 29.86 in 3.0 mi NNE 5.8 mph - 0.00 in   Overcast
5:14 AM 60.8 °F 57.2 °F 88% 29.85 in 2.5 mi NE 9.2 mph - N/A   Overcast
5:53 AM 59.0 °F 57.0 °F 93% 29.86 in 2.0 mi NNE 11.5 mph - 0.00 in Rain Light Rain
6:08 AM 59.0 °F 57.2 °F 94% 29.85 in 1.8 mi NE 8.1 mph - 0.00 in   Overcast
6:17 AM 59.0 °F 57.2 °F 94% 29.84 in 2.5 mi NE 11.5 mph - 0.00 in   Overcast
6:29 AM 59.0 °F 59.0 °F 100% 29.83 in 3.0 mi Calm Calm - 0.00 in   Overcast
6:36 AM 59.0 °F 57.2 °F 94% 29.82 in 2.5 mi ENE 5.8 mph - 0.00 in   Overcast
6:46 AM 60.8 °F 57.2 °F 88% 29.82 in 3.0 mi East 8.1 mph - 0.00 in   Overcast
6:53 AM 60.1 °F 57.9 °F 93% 29.81 in 4.0 mi East 11.5 mph - 0.00 in   Overcast
7:15 AM 60.8 °F 57.2 °F 88% 29.81 in 2.5 mi East 9.2 mph - N/A   Overcast
7:24 AM 60.8 °F 59.0 °F 94% 29.82 in 4.0 mi East 10.4 mph - N/A   Overcast
7:53 AM 62.1 °F 60.1 °F 93% 29.83 in 3.0 mi ENE 4.6 mph - N/A   Overcast
8:23 AM 60.8 °F 59.0 °F 94% 29.84 in 1.8 mi WNW 6.9 mph - N/A   Overcast
8:53 AM 61.0 °F 59.0 °F 93% 29.85 in 1.0 mi North 6.9 mph - N/A   Overcast
9:53 AM 61.0 °F 59.0 °F 93% 29.87 in 1.8 mi WNW 9.2 mph - N/A   Overcast
10:18 AM 62.6 °F 60.8 °F 94% 29.86 in 0.8 mi NW 5.8 mph - N/A   Overcast
10:33 AM 62.6 °F 60.8 °F 94% 29.86 in 1.0 mi WNW 6.9 mph - N/A   Overcast
10:53 AM 62.1 °F 60.1 °F 93% 29.87 in 1.5 mi NW 8.1 mph - N/A   Overcast
11:34 AM 62.6 °F 60.8 °F 94% 29.87 in 3.0 mi NW 10.4 mph - N/A   Overcast
11:53 AM 63.0 °F 61.0 °F 93% 29.87 in 6.0 mi NW 10.4 mph - N/A   Overcast
12:27 PM 62.6 °F 60.8 °F 94% 29.87 in 8.0 mi NW 16.1 mph - N/A   Overcast
12:53 PM 64.0 °F 60.1 °F 87% 29.86 in 10.0 mi NW 13.8 mph - N/A   Overcast
1:53 PM 64.9 °F 60.1 °F 84% 29.84 in 10.0 mi NW 10.4 mph - N/A   Overcast
2:53 PM 64.9 °F 60.1 °F 84% 29.84 in 10.0 mi NW 13.8 mph - N/A   Overcast
3:18 PM 66.2 °F 59.0 °F 78% 29.84 in 10.0 mi NW 13.8 mph 18.4 mph N/A   Mostly Cloudy
3:53 PM 66.9 °F 57.9 °F 73% 29.84 in 10.0 mi NW 11.5 mph - N/A   Overcast
4:05 PM 66.2 °F 57.2 °F 73% 29.84 in 10.0 mi NNW 11.5 mph - N/A   Mostly Cloudy
4:19 PM 66.2 °F 57.2 °F 73% 29.84 in 10.0 mi NNW 9.2 mph - N/A   Scattered Clouds
4:53 PM 66.0 °F 57.9 °F 75% 29.84 in 10.0 mi NNW 8.1 mph - N/A   Clear
5:53 PM 64.0 °F 57.9 °F 80% 29.85 in 10.0 mi North 9.2 mph - N/A   Partly Cloudy
6:53 PM 62.1 °F 55.9 °F 80% 29.86 in 10.0 mi NNE 9.2 mph - N/A   Clear
7:53 PM 61.0 °F 55.9 °F 83% 29.88 in 10.0 mi Calm Calm - N/A   Clear
8:53 PM 60.1 °F 55.0 °F 83% 29.91 in 10.0 mi Calm Calm - N/A   Clear
9:53 PM 59.0 °F 55.0 °F 87% 29.93 in 10.0 mi Calm Calm - N/A   Clear
10:53 PM 63.0 °F 55.9 °F 78% 29.96 in 10.0 mi Calm Calm - N/A   Clear
11:53 PM 59.0 °F 55.9 °F 90% 30.00 in 10.0 mi NNW 6.9 mph - N/A   Partly Cloudy